User: anonymous   Login
Location: El Centro
(32.7920°N, 115.5620°W)
Time: 14:30:32
(UTC-08:00)
Language:

Hamsat - Orbit

View from above orbital plane
View from above orbital plane
View from above satellite
View from above satellite

Ground track
Ground track

The orbit data is extracted from the following two-line orbital elements,

1 28650U 05017B   14328.43856342  .00003155  00000-0  36294-3 0  9134
2 28650 097.5649 325.4906 0024429 352.9871 007.1000 14.86229469517022
Epoch (UTC): 24 November 2014 10:31:31
Eccentricity: 0.0024429
inclination: 97.5649°
perigee height: 592 km
apogee height: 627 km
right ascension of ascending node: 325.4906°
argument of perigee: 352.9871°
revolutions per day: 14.86229469
mean anomaly at epoch: 7.1000°
orbit number at epoch: 51702

The dashed part of the orbit path shows where the satellite is in the earth's shadow,  

DLR